Weather Roundup
Issued by NWS

Home | Current Version | Previous Version | Graphics & Text | Print | Product List | Glossary Off
Versions: 1 2 3 4 5 6 7 8 9 10 11 12 13 14 15 16 17 18 19 20 21 22 23 24 25 26 27 28 29 30 31 32 33 34 35 36 37 38 39 40 41 42 43 44 45 46 47 48 49 50

144
NZUS93 KARX 271910
HRRWXR

CURRENT HOURLY OBSERVATIONS ACROSS
MUCH OF THE UPPER MISSISSIPPI VALLEY
NATIONAL WEATHER SERVICE LA CROSSE WI
200 PM CDT FRI MAY 27 2016


...SOUTHEAST MINNESOTA...


CITY           SKY/WX    TMP DP  RH WIND       PRES   REMARKS
ROCHESTER      CLOUDY    66  64  93 N3        29.78F
ROCHESTER/MAYO CLOUDY    65  65 100 W5        29.78F
WINONA         CLOUDY    73  66  78 SE6       29.77F
AUSTIN         RAIN      64  61  88 CALM      29.77S
ALBERT LEA     LGT RAIN  64  63  94 CALM      29.77F
DODGE CENTER   RAIN      64  63  94 NE9       29.78F
PRESTON        RAIN      66  64  91 SE8       29.77F
OWATONNA       LGT RAIN  64  61  88 CALM      29.79F
FARIBAULT      CLOUDY    63  63 100 CALM      29.80S
$$

...ELSEWHERE IN MINNESOTA...


CITY           SKY/WX    TMP DP  RH WIND       PRES   REMARKS
MINNEAPOLIS    LGT RAIN  64  61  90 NW3       29.80S
INTNL FALLS    CLOUDY    67  55  65 VRB6      29.86S
DULUTH         LGT RAIN  62  58  86 N9        29.88F
RED WING       RAIN      66  63  88 CALM      29.77F
REDWOOD FALLS  CLOUDY    72  56  57 E5        29.75S
MANKATO        CLOUDY    66  61  82 SE8       29.78S
WORTHINGTON    CLOUDY    69  57  65 SE7       29.78S
FAIRMONT       MOSUNNY   70  59  68 S9        29.77S
$$

...SOUTHWEST WISCONSIN...


CITY           SKY/WX    TMP DP  RH WIND       PRES   REMARKS
LA CROSSE      CLOUDY    76  64  66 SE12      29.77S
PRAIRIE DU CHI CLOUDY    71  63  75 E7        29.79F
BOSCOBEL       CLOUDY    76  65  68 VRB5      29.80F
LONE ROCK      CLOUDY    77  65  66 SE6       29.80F
PLATTEVILLE    CLOUDY    73  67  83 S16       29.81F
FORT MC COY    CLOUDY    75  63  66 SE12      29.80S
CAMP DOUGLAS   CLOUDY    74  74 100 SE10      29.81S
MAUSTON-NEW LI CLOUDY    73  66  76 S8        29.82R
VIROQUA        CLOUDY    71  63  77 S12       29.82R
WIS DELLS      CLOUDY    75  63  66 SE3       29.82F
$$

...ELSEWHERE IN WISCONSIN...


CITY           SKY/WX    TMP DP  RH WIND       PRES   REMARKS
MILWAUKEE      PTSUNNY   75  66  73 SE14      29.85F
MADISON        CLOUDY    78  65  63 S9        29.81F
GREEN BAY      CLOUDY    69  66  90 E7        29.87F
EAU CLAIRE     LGT RAIN  68  63  84 E9        29.78F
BLACK RVR FLS  CLOUDY    74  60  61 SE3       29.78F
MEDFORD        CLOUDY    72  60  65 E8        29.83F
WAUSAU         CLOUDY    74  62  66 E8        29.82F
WIS RAPIDS     PTSUNNY   75  60  59 SE12      29.84F
MARSHFIELD     CLOUDY    77  61  57 E14G24    29.81F
RICE LAKE      PTSUNNY   68  57  66 NE9       29.82F
$$

...NORTHEAST IOWA...


CITY           SKY/WX    TMP DP  RH WIND       PRES   REMARKS
WATERLOO       LGT RAIN  69  65  86 CALM      29.73F FOG
DUBUQUE        CLOUDY    72  66  81 S20G26    29.80F
DECORAH        PTSUNNY   68  66  94 SE12      29.77F
MASON CITY     CLOUDY    66  63  90 CALM      29.78F
CHARLES CITY   RAIN      66  66 100 S8        29.78S VSB 1
OELWEIN        CLOUDY    73  68  83 E14       29.76F
$$

...ELSEWHERE IN IOWA...


CITY           SKY/WX    TMP DP  RH WIND       PRES   REMARKS
DES MOINES     PTSUNNY   72  64  76 W9        29.75F
IOWA CITY      PTSUNNY   77  66  68 S16       29.76F
FORT DODGE     PTSUNNY   72  61  68 S5        29.78R
MARSHALLTOWN   PTSUNNY   73  68  84 SW13G21   29.73F
CEDAR RAPIDS   PTSUNNY   78  67  68 S14G23    29.73F
$$

...NORTHERN ILLINOIS...


CITY           SKY/WX    TMP DP  RH WIND       PRES   REMARKS
CHICAGO-OHARE  CLOUDY    81  63  54 S20G25    29.85F
CHICAGO-MIDWAY CLOUDY    79  64  60 S13G28    29.86F
MOLINE         LGT RAIN  73  66  78 S10G20    29.79F
ROCKFORD       CLOUDY    80  62  54 S20G25    29.83F
PEORIA         CLOUDY    76  66  71 S16       29.83F
$$

NOTE: "FAIR" INDICATES FEW OR NO CLOUDS BELOW 12,000 FEET WITH NO
SIGNIFICANT WEATHER AND/OR OBSTRUCTIONS TO VISIBILITY. WIND
SPEEDS ARE IN MILES-PER-HOUR.




USA.gov is the U.S. government's official web portal to all federal, state and local government web resources and services.